owner,sensor,date,latitude,longitude,vertical_datum,sea_water_practical_salinity,qcFlag 
SCCF RECON,ioos:station:SCCF:16:1,2012-05-01T00:00:00Z,26.4345,-81.9647,2.503,35.77,1111122 
SCCF RECON,ioos:station:SCCF:16:1,2012-05-01T01:00:00Z,26.4345,-81.9647,2.555,35.77,1111122 
SCCF RECON,ioos:station:SCCF:16:1,2012-05-01T02:00:00Z,26.4345,-81.9647,2.504,35.8,1111122 
SCCF RECON,ioos:station:SCCF:16:1,2012-05-01T03:00:00Z,26.4345,-81.9647,2.471,35.8,1111122 
SCCF RECON,ioos:station:SCCF:16:1,2012-05-01T04:00:00Z,26.4345,-81.9647,2.338,35.78,1111122 
SCCF RECON,ioos:station:SCCF:16:1,2012-05-01T05:00:00Z,26.4345,-81.9647,2.309,35.78,1111122 
SCCF RECON,ioos:station:SCCF:16:1,2012-05-01T06:00:00Z,26.4345,-81.9647,2.188,35.79,1111122 
SCCF RECON,ioos:station:SCCF:16:1,2012-05-01T07:00:00Z,26.4345,-81.9647,2.215,35.86,1111122 
SCCF RECON,ioos:station:SCCF:16:1,2012-05-01T08:00:00Z,26.4345,-81.9647,2.289,35.87,1111122 
SCCF RECON,ioos:station:SCCF:16:1,2012-05-01T09:00:00Z,26.4345,-81.9647,2.48,35.8,1111122 
SCCF RECON,ioos:station:SCCF:16:1,2012-05-01T10:00:00Z,26.4345,-81.9647,2.584,35.77,1111122 
SCCF RECON,ioos:station:SCCF:16:1,2012-05-01T11:00:00Z,26.4345,-81.9647,2.707,35.8,1111122 
SCCF RECON,ioos:station:SCCF:16:1,2012-05-01T12:00:00Z,26.4345,-81.9647,2.777,35.76,1111122 
SCCF RECON,ioos:station:SCCF:16:1,2012-05-01T13:00:00Z,26.4345,-81.9647,2.791,35.77,1111122 
SCCF RECON,ioos:station:SCCF:16:1,2012-05-01T14:00:00Z,26.4345,-81.9647,2.833,35.85,1111122 
SCCF RECON,ioos:station:SCCF:16:1,2012-05-01T15:00:00Z,26.4345,-81.9647,2.818,35.87,1111122 
SCCF RECON,ioos:station:SCCF:16:1,2012-05-01T16:00:00Z,26.4345,-81.9647,2.725,35.84,1111122 
SCCF RECON,ioos:station:SCCF:16:1,2012-05-01T17:00:00Z,26.4345,-81.9647,2.592,35.81,1111122 
SCCF RECON,ioos:station:SCCF:16:1,2012-05-01T18:00:00Z,26.4345,-81.9647,2.457,35.79,1111122 
SCCF RECON,ioos:station:SCCF:16:1,2012-05-01T19:00:00Z,26.4345,-81.9647,2.395,35.81,1111122 
SCCF RECON,ioos:station:SCCF:16:1,2012-05-01T20:00:00Z,26.4345,-81.9647,2.406,35.83,1111122 
SCCF RECON,ioos:station:SCCF:16:1,2012-05-01T21:00:00Z,26.4345,-81.9647,2.438,35.86,1111122 
SCCF RECON,ioos:station:SCCF:16:1,2012-05-01T22:00:00Z,26.4345,-81.9647,2.572,35.87,1111122 
SCCF RECON,ioos:station:SCCF:16:1,2012-05-01T23:00:00Z,26.4345,-81.9647,2.682,35.8,1111122 
SCCF RECON,ioos:station:SCCF:16:1,2012-05-02T00:00:00Z,26.4345,-81.9647,2.707,35.8,1111122 
SCCF RECON,ioos:station:SCCF:16:1,2012-05-02T01:00:00Z,26.4345,-81.9647,2.754,35.83,1111122 
SCCF RECON,ioos:station:SCCF:16:1,2012-05-02T02:00:00Z,26.4345,-81.9647,2.797,35.86,1111122 
SCCF RECON,ioos:station:SCCF:16:1,2012-05-02T03:00:00Z,26.4345,-81.9647,2.79,35.86,1111122 
SCCF RECON,ioos:station:SCCF:16:1,2012-05-02T04:00:00Z,26.4345,-81.9647,2.677,35.9,1111122 
SCCF RECON,ioos:station:SCCF:16:1,2012-05-02T05:00:00Z,26.4345,-81.9647,2.537,35.88,1111122 
SCCF RECON,ioos:station:SCCF:16:1,2012-05-02T06:00:00Z,26.4345,-81.9647,2.392,35.86,1111122 
SCCF RECON,ioos:station:SCCF:16:1,2012-05-02T07:00:00Z,26.4345,-81.9647,2.29,35.86,1111122 
SCCF RECON,ioos:station:SCCF:16:1,2012-05-02T08:00:00Z,26.4345,-81.9647,2.273,35.84,1111122 
SCCF RECON,ioos:station:SCCF:16:1,2012-05-02T09:00:00Z,26.4345,-81.9647,2.304,35.85,1111122 
SCCF RECON,ioos:station:SCCF:16:1,2012-05-02T10:00:00Z,26.4345,-81.9647,2.548,35.86,1111122 
SCCF RECON,ioos:station:SCCF:16:1,2012-05-02T11:00:00Z,26.4345,-81.9647,2.765,35.84,1111122 
SCCF RECON,ioos:station:SCCF:16:1,2012-05-02T12:00:00Z,26.4345,-81.9647,2.819,35.86,1111122 
SCCF RECON,ioos:station:SCCF:16:1,2012-05-02T13:00:00Z,26.4345,-81.9647,2.88,35.89,1111122 
SCCF RECON,ioos:station:SCCF:16:1,2012-05-02T14:00:00Z,26.4345,-81.9647,2.963,35.95,1111122 
SCCF RECON,ioos:station:SCCF:16:1,2012-05-02T15:00:00Z,26.4345,-81.9647,2.948,35.98,1111122 
SCCF RECON,ioos:station:SCCF:16:1,2012-05-02T16:00:00Z,26.4345,-81.9647,2.84,36.0,1111122 
SCCF RECON,ioos:station:SCCF:16:1,2012-05-02T17:00:00Z,26.4345,-81.9647,2.705,36.0,1111122 
SCCF RECON,ioos:station:SCCF:16:1,2012-05-02T18:00:00Z,26.4345,-81.9647,2.594,35.97,1111122 
SCCF RECON,ioos:station:SCCF:16:1,2012-05-02T19:00:00Z,26.4345,-81.9647,2.492,35.95,1111122 
SCCF RECON,ioos:station:SCCF:16:1,2012-05-02T20:00:00Z,26.4345,-81.9647,2.368,35.88,1111122 
SCCF RECON,ioos:station:SCCF:16:1,2012-05-02T21:00:00Z,26.4345,-81.9647,2.358,35.86,1111122 
SCCF RECON,ioos:station:SCCF:16:1,2012-05-02T22:00:00Z,26.4345,-81.9647,2.408,35.85,1111122 
SCCF RECON,ioos:station:SCCF:16:1,2012-05-02T23:00:00Z,26.4345,-81.9647,2.564,35.85,1111122 
SCCF RECON,ioos:station:SCCF:16:1,2012-05-03T00:00:00Z,26.4345,-81.9647,2.705,35.86,1111122 
SCCF RECON,ioos:station:SCCF:16:1,2012-05-03T01:00:00Z,26.4345,-81.9647,2.863,35.85,1111122 
SCCF RECON,ioos:station:SCCF:16:1,2012-05-03T02:00:00Z,26.4345,-81.9647,2.92,35.87,1111122 
SCCF RECON,ioos:station:SCCF:16:1,2012-05-03T03:00:00Z,26.4345,-81.9647,2.919,35.91,1111122 
SCCF RECON,ioos:station:SCCF:16:1,2012-05-03T04:00:00Z,26.4345,-81.9647,2.875,35.94,1111122 
SCCF RECON,ioos:station:SCCF:16:1,2012-05-03T05:00:00Z,26.4345,-81.9647,2.769,35.95,1111122 
SCCF RECON,ioos:station:SCCF:16:1,2012-05-03T06:00:00Z,26.4345,-81.9647,2.578,35.92,1111122 
SCCF RECON,ioos:station:SCCF:16:1,2012-05-03T07:00:00Z,26.4345,-81.9647,2.415,35.85,1111122 
SCCF RECON,ioos:station:SCCF:16:1,2012-05-03T08:00:00Z,26.4345,-81.9647,2.356,35.85,1111122 
SCCF RECON,ioos:station:SCCF:16:1,2012-05-03T09:00:00Z,26.4345,-81.9647,2.361,35.85,1111122 
SCCF RECON,ioos:station:SCCF:16:1,2012-05-03T10:00:00Z,26.4345,-81.9647,2.435,35.86,1111122 
SCCF RECON,ioos:station:SCCF:16:1,2012-05-03T11:00:00Z,26.4345,-81.9647,2.67,35.86,1111122 
SCCF RECON,ioos:station:SCCF:16:1,2012-05-03T12:00:00Z,26.4345,-81.9647,2.895,35.85,1111122 
SCCF RECON,ioos:station:SCCF:16:1,2012-05-03T13:00:00Z,26.4345,-81.9647,2.959,35.85,1111122 
SCCF RECON,ioos:station:SCCF:16:1,2012-05-03T14:00:00Z,26.4345,-81.9647,3.029,35.9,1111122 
SCCF RECON,ioos:station:SCCF:16:1,2012-05-03T15:00:00Z,26.4345,-81.9647,3.081,35.92,1111122 
SCCF RECON,ioos:station:SCCF:16:1,2012-05-03T16:00:00Z,26.4345,-81.9647,2.99,35.93,1111122 
SCCF RECON,ioos:station:SCCF:16:1,2012-05-03T17:00:00Z,26.4345,-81.9647,2.769,35.92,1111122 
SCCF RECON,ioos:station:SCCF:16:1,2012-05-03T18:00:00Z,26.4345,-81.9647,2.606,35.87,1111122 
SCCF RECON,ioos:station:SCCF:16:1,2012-05-03T19:00:00Z,26.4345,-81.9647,2.444,35.85,1111122 
SCCF RECON,ioos:station:SCCF:16:1,2012-05-03T20:00:00Z,26.4345,-81.9647,2.299,35.86,1111122 
SCCF RECON,ioos:station:SCCF:16:1,2012-05-03T21:00:00Z,26.4345,-81.9647,2.162,35.87,1111122 
SCCF RECON,ioos:station:SCCF:16:1,2012-05-03T22:00:00Z,26.4345,-81.9647,2.155,35.89,1111122 
SCCF RECON,ioos:station:SCCF:16:1,2012-05-03T23:00:00Z,26.4345,-81.9647,2.332,35.91,1111122 
SCCF RECON,ioos:station:SCCF:16:1,2012-05-04T00:00:00Z,26.4345,-81.9647,2.528,35.96,1111122 
SCCF RECON,ioos:station:SCCF:16:1,2012-05-04T01:00:00Z,26.4345,-81.9647,2.697,35.91,1111122 
SCCF RECON,ioos:station:SCCF:16:1,2012-05-04T02:00:00Z,26.4345,-81.9647,2.85,35.96,1111122 
SCCF RECON,ioos:station:SCCF:16:1,2012-05-04T03:00:00Z,26.4345,-81.9647,2.999,35.97,1111122 
SCCF RECON,ioos:station:SCCF:16:1,2012-05-04T04:00:00Z,26.4345,-81.9647,2.942,35.98,1111122 
SCCF RECON,ioos:station:SCCF:16:1,2012-05-04T05:00:00Z,26.4345,-81.9647,2.824,35.97,1111122 
SCCF RECON,ioos:station:SCCF:16:1,2012-05-04T06:00:00Z,26.4345,-81.9647,2.713,35.97,1111122 
SCCF RECON,ioos:station:SCCF:16:1,2012-05-04T07:00:00Z,26.4345,-81.9647,2.566,35.91,1111122 
SCCF RECON,ioos:station:SCCF:16:1,2012-05-04T08:00:00Z,26.4345,-81.9647,2.463,35.89,1111122 
SCCF RECON,ioos:station:SCCF:16:1,2012-05-04T09:00:00Z,26.4345,-81.9647,2.383,35.91,1111122 
SCCF RECON,ioos:station:SCCF:16:1,2012-05-04T10:00:00Z,26.4345,-81.9647,2.393,35.92,1111122 
SCCF RECON,ioos:station:SCCF:16:1,2012-05-04T11:00:00Z,26.4345,-81.9647,2.541,35.93,1111122 
SCCF RECON,ioos:station:SCCF:16:1,2012-05-04T12:00:00Z,26.4345,-81.9647,2.757,35.97,1111122 
SCCF RECON,ioos:station:SCCF:16:1,2012-05-04T13:00:00Z,26.4345,-81.9647,2.972,35.97,1111122 
SCCF RECON,ioos:station:SCCF:16:1,2012-05-04T14:00:00Z,26.4345,-81.9647,3.066,35.98,1111122 
SCCF RECON,ioos:station:SCCF:16:1,2012-05-04T15:00:00Z,26.4345,-81.9647,3.084,35.96,1111122 
SCCF RECON,ioos:station:SCCF:16:1,2012-05-04T16:00:00Z,26.4345,-81.9647,3.06,35.94,1111122 
SCCF RECON,ioos:station:SCCF:16:1,2012-05-04T17:00:00Z,26.4345,-81.9647,2.912,35.92,1111122 
SCCF RECON,ioos:station:SCCF:16:1,2012-05-04T18:00:00Z,26.4345,-81.9647,2.697,35.92,1111122 
SCCF RECON,ioos:station:SCCF:16:1,2012-05-04T19:00:00Z,26.4345,-81.9647,2.471,35.91,1111122 
SCCF RECON,ioos:station:SCCF:16:1,2012-05-04T20:00:00Z,26.4345,-81.9647,2.277,35.91,1111122 
SCCF RECON,ioos:station:SCCF:16:1,2012-05-04T21:00:00Z,26.4345,-81.9647,2.091,35.94,1111122 
SCCF RECON,ioos:station:SCCF:16:1,2012-05-04T22:00:00Z,26.4345,-81.9647,1.971,35.98,1111122 
SCCF RECON,ioos:station:SCCF:16:1,2012-05-04T23:00:00Z,26.4345,-81.9647,2.027,36.01,1111122 
SCCF RECON,ioos:station:SCCF:16:1,2012-05-05T00:00:00Z,26.4345,-81.9647,2.275,35.96,1111122 
SCCF RECON,ioos:station:SCCF:16:1,2012-05-05T01:00:00Z,26.4345,-81.9647,2.527,36.06,1111122 
SCCF RECON,ioos:station:SCCF:16:1,2012-05-05T02:00:00Z,26.4345,-81.9647,2.682,36.04,1111122 
SCCF RECON,ioos:station:SCCF:16:1,2012-05-05T03:00:00Z,26.4345,-81.9647,2.821,36.04,1111122 
SCCF RECON,ioos:station:SCCF:16:1,2012-05-05T04:00:00Z,26.4345,-81.9647,2.929,36.05,1111122 
SCCF RECON,ioos:station:SCCF:16:1,2012-05-05T05:00:00Z,26.4345,-81.9647,2.962,36.05,1111122 
SCCF RECON,ioos:station:SCCF:16:1,2012-05-05T06:00:00Z,26.4345,-81.9647,2.843,36.04,1111122 
SCCF RECON,ioos:station:SCCF:16:1,2012-05-05T07:00:00Z,26.4345,-81.9647,2.682,36.03,1111122 
SCCF RECON,ioos:station:SCCF:16:1,2012-05-05T08:00:00Z,26.4345,-81.9647,2.562,36.02,1111122 
SCCF RECON,ioos:station:SCCF:16:1,2012-05-05T09:00:00Z,26.4345,-81.9647,2.484,36.02,1111122 
SCCF RECON,ioos:station:SCCF:16:1,2012-05-05T10:00:00Z,26.4345,-81.9647,2.419,36.01,1111122 
SCCF RECON,ioos:station:SCCF:16:1,2012-05-05T11:00:00Z,26.4345,-81.9647,2.456,36.02,1111122 
SCCF RECON,ioos:station:SCCF:16:1,2012-05-05T12:00:00Z,26.4345,-81.9647,2.633,36.05,1111122 
SCCF RECON,ioos:station:SCCF:16:1,2012-05-05T13:00:00Z,26.4345,-81.9647,2.837,36.06,1111122 
SCCF RECON,ioos:station:SCCF:16:1,2012-05-05T14:00:00Z,26.4345,-81.9647,2.997,36.05,1111122 
SCCF RECON,ioos:station:SCCF:16:1,2012-05-05T15:00:00Z,26.4345,-81.9647,3.066,36.04,1111122 
SCCF RECON,ioos:station:SCCF:16:1,2012-05-05T16:00:00Z,26.4345,-81.9647,3.086,36.03,1111122 
SCCF RECON,ioos:station:SCCF:16:1,2012-05-05T17:00:00Z,26.4345,-81.9647,3.054,36.02,1111122 
SCCF RECON,ioos:station:SCCF:16:1,2012-05-05T18:00:00Z,26.4345,-81.9647,2.874,36.01,1111122 
SCCF RECON,ioos:station:SCCF:16:1,2012-05-05T19:00:00Z,26.4345,-81.9647,2.606,36.02,1111122 
SCCF RECON,ioos:station:SCCF:16:1,2012-05-05T20:00:00Z,26.4345,-81.9647,2.363,36.02,1111122 
SCCF RECON,ioos:station:SCCF:16:1,2012-05-05T21:00:00Z,26.4345,-81.9647,2.142,36.03,1111122 
SCCF RECON,ioos:station:SCCF:16:1,2012-05-05T22:00:00Z,26.4345,-81.9647,1.91,36.07,1111122 
SCCF RECON,ioos:station:SCCF:16:1,2012-05-05T23:00:00Z,26.4345,-81.9647,1.811,35.99,1111122 
SCCF RECON,ioos:station:SCCF:16:1,2012-05-06T00:00:00Z,26.4345,-81.9647,1.937,36.06,1111122 
SCCF RECON,ioos:station:SCCF:16:1,2012-05-06T01:00:00Z,26.4345,-81.9647,2.241,35.95,1111122 
SCCF RECON,ioos:station:SCCF:16:1,2012-05-06T02:00:00Z,26.4345,-81.9647,2.48,36.1,1111122 
SCCF RECON,ioos:station:SCCF:16:1,2012-05-06T03:00:00Z,26.4345,-81.9647,2.639,36.1,1111122 
SCCF RECON,ioos:station:SCCF:16:1,2012-05-06T04:00:00Z,26.4345,-81.9647,2.799,36.09,1111122 
SCCF RECON,ioos:station:SCCF:16:1,2012-05-06T05:00:00Z,26.4345,-81.9647,2.907,36.08,1111122 
SCCF RECON,ioos:station:SCCF:16:1,2012-05-06T06:00:00Z,26.4345,-81.9647,2.9,36.08,1111122 
SCCF RECON,ioos:station:SCCF:16:1,2012-05-06T07:00:00Z,26.4345,-81.9647,2.794,36.08,1111122 
SCCF RECON,ioos:station:SCCF:16:1,2012-05-06T08:00:00Z,26.4345,-81.9647,2.656,36.07,1111122 
SCCF RECON,ioos:station:SCCF:16:1,2012-05-06T09:00:00Z,26.4345,-81.9647,2.596,36.07,1111122 
SCCF RECON,ioos:station:SCCF:16:1,2012-05-06T10:00:00Z,26.4345,-81.9647,2.538,36.07,1111122 
SCCF RECON,ioos:station:SCCF:16:1,2012-05-06T11:00:00Z,26.4345,-81.9647,2.506,36.07,1111122 
SCCF RECON,ioos:station:SCCF:16:1,2012-05-06T12:00:00Z,26.4345,-81.9647,2.568,36.06,1111122 
SCCF RECON,ioos:station:SCCF:16:1,2012-05-06T13:00:00Z,26.4345,-81.9647,2.738,36.08,1111122 
SCCF RECON,ioos:station:SCCF:16:1,2012-05-06T14:00:00Z,26.4345,-81.9647,2.93,36.08,1111122 
SCCF RECON,ioos:station:SCCF:16:1,2012-05-06T15:00:00Z,26.4345,-81.9647,3.084,36.09,1111122 
SCCF RECON,ioos:station:SCCF:16:1,2012-05-06T16:00:00Z,26.4345,-81.9647,3.119,36.08,1111122 
SCCF RECON,ioos:station:SCCF:16:1,2012-05-06T17:00:00Z,26.4345,-81.9647,3.128,36.09,1111122 
SCCF RECON,ioos:station:SCCF:16:1,2012-05-06T18:00:00Z,26.4345,-81.9647,3.05,36.09,1111122 
SCCF RECON,ioos:station:SCCF:16:1,2012-05-06T19:00:00Z,26.4345,-81.9647,2.854,36.08,1111122 
SCCF RECON,ioos:station:SCCF:16:1,2012-05-06T20:00:00Z,26.4345,-81.9647,2.585,36.09,1111122 
SCCF RECON,ioos:station:SCCF:16:1,2012-05-06T21:00:00Z,26.4345,-81.9647,2.318,36.07,1111122 
SCCF RECON,ioos:station:SCCF:16:1,2012-05-06T22:00:00Z,26.4345,-81.9647,2.065,36.07,1111122 
SCCF RECON,ioos:station:SCCF:16:1,2012-05-06T23:00:00Z,26.4345,-81.9647,1.866,36.09,1111122 
SCCF RECON,ioos:station:SCCF:16:1,2012-05-07T00:00:00Z,26.4345,-81.9647,1.787,36.05,1111122 
SCCF RECON,ioos:station:SCCF:16:1,2012-05-07T01:00:00Z,26.4345,-81.9647,1.953,36.09,1111122 
SCCF RECON,ioos:station:SCCF:16:1,2012-05-07T02:00:00Z,26.4345,-81.9647,2.258,36.0,1111122 
SCCF RECON,ioos:station:SCCF:16:1,2012-05-07T03:00:00Z,26.4345,-81.9647,2.517,36.12,1111122 
SCCF RECON,ioos:station:SCCF:16:1,2012-05-07T04:00:00Z,26.4345,-81.9647,2.638,36.13,1111122 
SCCF RECON,ioos:station:SCCF:16:1,2012-05-07T05:00:00Z,26.4345,-81.9647,2.758,36.13,1111122 
SCCF RECON,ioos:station:SCCF:16:1,2012-05-07T06:00:00Z,26.4345,-81.9647,2.852,36.13,1111122 
SCCF RECON,ioos:station:SCCF:16:1,2012-05-07T07:00:00Z,26.4345,-81.9647,2.855,36.13,1111122 
SCCF RECON,ioos:station:SCCF:16:1,2012-05-07T08:00:00Z,26.4345,-81.9647,2.759,36.13,1111122 
SCCF RECON,ioos:station:SCCF:16:1,2012-05-07T09:00:00Z,26.4345,-81.9647,2.67,36.13,1111122 
SCCF RECON,ioos:station:SCCF:16:1,2012-05-07T10:00:00Z,26.4345,-81.9647,2.599,36.11,1111122 
SCCF RECON,ioos:station:SCCF:16:1,2012-05-07T11:00:00Z,26.4345,-81.9647,2.53,36.09,1111122 
SCCF RECON,ioos:station:SCCF:16:1,2012-05-07T12:00:00Z,26.4345,-81.9647,2.512,36.07,1111122 
SCCF RECON,ioos:station:SCCF:16:1,2012-05-07T13:00:00Z,26.4345,-81.9647,2.62,36.07,1111122 
SCCF RECON,ioos:station:SCCF:16:1,2012-05-07T14:00:00Z,26.4345,-81.9647,2.797,36.08,1111122 
SCCF RECON,ioos:station:SCCF:16:1,2012-05-07T15:00:00Z,26.4345,-81.9647,2.972,36.12,1111122 
SCCF RECON,ioos:station:SCCF:16:1,2012-05-07T16:00:00Z,26.4345,-81.9647,3.089,36.13,1111122 
SCCF RECON,ioos:station:SCCF:16:1,2012-05-07T17:00:00Z,26.4345,-81.9647,3.129,36.12,1111122 
SCCF RECON,ioos:station:SCCF:16:1,2012-05-07T18:00:00Z,26.4345,-81.9647,3.118,36.11,1111122 
SCCF RECON,ioos:station:SCCF:16:1,2012-05-07T19:00:00Z,26.4345,-81.9647,3.03,36.11,1111122 
SCCF RECON,ioos:station:SCCF:16:1,2012-05-07T20:00:00Z,26.4345,-81.9647,2.83,36.12,1111122 
SCCF RECON,ioos:station:SCCF:16:1,2012-05-07T21:00:00Z,26.4345,-81.9647,2.56,36.12,1111122 
SCCF RECON,ioos:station:SCCF:16:1,2012-05-07T22:00:00Z,26.4345,-81.9647,2.288,36.12,1111122 
SCCF RECON,ioos:station:SCCF:16:1,2012-05-07T23:00:00Z,26.4345,-81.9647,2.059,36.1,1111122 
SCCF RECON,ioos:station:SCCF:16:1,2012-05-08T00:00:00Z,26.4345,-81.9647,1.89,36.11,1111122 
SCCF RECON,ioos:station:SCCF:16:1,2012-05-08T01:00:00Z,26.4345,-81.9647,1.855,36.09,1111122 
SCCF RECON,ioos:station:SCCF:16:1,2012-05-08T02:00:00Z,26.4345,-81.9647,2.034,36.16,1111122 
SCCF RECON,ioos:station:SCCF:16:1,2012-05-08T03:00:00Z,26.4345,-81.9647,2.372,36.07,1111122 
SCCF RECON,ioos:station:SCCF:16:1,2012-05-08T04:00:00Z,26.4345,-81.9647,2.561,36.16,1111122 
SCCF RECON,ioos:station:SCCF:16:1,2012-05-08T05:00:00Z,26.4345,-81.9647,2.661,36.16,1111122 
SCCF RECON,ioos:station:SCCF:16:1,2012-05-08T06:00:00Z,26.4345,-81.9647,2.758,36.16,1111122 
SCCF RECON,ioos:station:SCCF:16:1,2012-05-08T07:00:00Z,26.4345,-81.9647,2.87,36.16,1111122 
SCCF RECON,ioos:station:SCCF:16:1,2012-05-08T08:00:00Z,26.4345,-81.9647,2.846,36.15,1111122 
SCCF RECON,ioos:station:SCCF:16:1,2012-05-08T09:00:00Z,26.4345,-81.9647,2.759,36.14,1111122 
SCCF RECON,ioos:station:SCCF:16:1,2012-05-08T10:00:00Z,26.4345,-81.9647,2.691,36.15,1111122 
SCCF RECON,ioos:station:SCCF:16:1,2012-05-08T11:00:00Z,26.4345,-81.9647,2.622,36.15,1111122 
SCCF RECON,ioos:station:SCCF:16:1,2012-05-08T12:00:00Z,26.4345,-81.9647,2.587,36.15,1111122 
SCCF RECON,ioos:station:SCCF:16:1,2012-05-08T13:00:00Z,26.4345,-81.9647,2.6,36.15,1111122 
SCCF RECON,ioos:station:SCCF:16:1,2012-05-08T14:00:00Z,26.4345,-81.9647,2.705,36.15,1111122 
SCCF RECON,ioos:station:SCCF:16:1,2012-05-08T15:00:00Z,26.4345,-81.9647,2.85,36.14,1111122 
SCCF RECON,ioos:station:SCCF:16:1,2012-05-08T16:00:00Z,26.4345,-81.9647,2.995,36.15,1111122 
SCCF RECON,ioos:station:SCCF:16:1,2012-05-08T17:00:00Z,26.4345,-81.9647,3.067,36.15,1111122 
SCCF RECON,ioos:station:SCCF:16:1,2012-05-08T18:00:00Z,26.4345,-81.9647,3.088,36.14,1111122 
SCCF RECON,ioos:station:SCCF:16:1,2012-05-08T19:00:00Z,26.4345,-81.9647,3.058,36.14,1111122 
SCCF RECON,ioos:station:SCCF:16:1,2012-05-08T20:00:00Z,26.4345,-81.9647,2.924,36.14,1111122 
SCCF RECON,ioos:station:SCCF:16:1,2012-05-08T21:00:00Z,26.4345,-81.9647,2.711,36.14,1111122 
SCCF RECON,ioos:station:SCCF:16:1,2012-05-08T22:00:00Z,26.4345,-81.9647,2.435,36.15,1111122 
SCCF RECON,ioos:station:SCCF:16:1,2012-05-08T23:00:00Z,26.4345,-81.9647,2.193,36.15,1111122 
SCCF RECON,ioos:station:SCCF:16:1,2012-05-09T00:00:00Z,26.4345,-81.9647,2.004,36.13,1111122 
SCCF RECON,ioos:station:SCCF:16:1,2012-05-09T01:00:00Z,26.4345,-81.9647,1.86,36.11,1111122 
SCCF RECON,ioos:station:SCCF:16:1,2012-05-09T02:00:00Z,26.4345,-81.9647,1.854,36.11,1111122 
SCCF RECON,ioos:station:SCCF:16:1,2012-05-09T03:00:00Z,26.4345,-81.9647,2.055,36.14,1111122 
SCCF RECON,ioos:station:SCCF:16:1,2012-05-09T04:00:00Z,26.4345,-81.9647,2.327,36.05,1111122 
SCCF RECON,ioos:station:SCCF:16:1,2012-05-09T05:00:00Z,26.4345,-81.9647,2.48,36.17,1111122 
SCCF RECON,ioos:station:SCCF:16:1,2012-05-09T06:00:00Z,26.4345,-81.9647,2.602,36.2,1111122 
SCCF RECON,ioos:station:SCCF:16:1,2012-05-09T07:00:00Z,26.4345,-81.9647,2.69,36.2,1111122 
SCCF RECON,ioos:station:SCCF:16:1,2012-05-09T08:00:00Z,26.4345,-81.9647,2.79,36.2,1111122 
SCCF RECON,ioos:station:SCCF:16:1,2012-05-09T09:00:00Z,26.4345,-81.9647,2.77,36.19,1111122 
SCCF RECON,ioos:station:SCCF:16:1,2012-05-09T10:00:00Z,26.4345,-81.9647,2.699,36.18,1111122 
SCCF RECON,ioos:station:SCCF:16:1,2012-05-09T11:00:00Z,26.4345,-81.9647,2.617,36.18,1111122 
SCCF RECON,ioos:station:SCCF:16:1,2012-05-09T12:00:00Z,26.4345,-81.9647,2.58,36.18,1111122 
SCCF RECON,ioos:station:SCCF:16:1,2012-05-09T13:00:00Z,26.4345,-81.9647,2.582,36.18,1111122 
SCCF RECON,ioos:station:SCCF:16:1,2012-05-09T14:00:00Z,26.4345,-81.9647,2.592,36.2,1111122 
SCCF RECON,ioos:station:SCCF:16:1,2012-05-09T15:00:00Z,26.4345,-81.9647,2.688,36.2,1111122 
SCCF RECON,ioos:station:SCCF:16:1,2012-05-09T16:00:00Z,26.4345,-81.9647,2.828,36.2,1111122 
SCCF RECON,ioos:station:SCCF:16:1,2012-05-09T17:00:00Z,26.4345,-81.9647,2.967,36.18,1111122 
SCCF RECON,ioos:station:SCCF:16:1,2012-05-09T18:00:00Z,26.4345,-81.9647,3.014,36.17,1111122 
SCCF RECON,ioos:station:SCCF:16:1,2012-05-09T19:00:00Z,26.4345,-81.9647,3.015,36.16,1111122 
SCCF RECON,ioos:station:SCCF:16:1,2012-05-09T20:00:00Z,26.4345,-81.9647,2.966,36.16,1111122 
SCCF RECON,ioos:station:SCCF:16:1,2012-05-09T21:00:00Z,26.4345,-81.9647,2.856,36.16,1111122 
SCCF RECON,ioos:station:SCCF:16:1,2012-05-09T22:00:00Z,26.4345,-81.9647,2.66,36.16,1111122 
SCCF RECON,ioos:station:SCCF:16:1,2012-05-09T23:00:00Z,26.4345,-81.9647,2.497,36.18,1111122 
SCCF RECON,ioos:station:SCCF:16:1,2012-05-10T00:00:00Z,26.4345,-81.9647,2.322,36.2,1111122 
SCCF RECON,ioos:station:SCCF:16:1,2012-05-10T01:00:00Z,26.4345,-81.9647,2.113,36.21,1111122 
SCCF RECON,ioos:station:SCCF:16:1,2012-05-10T02:00:00Z,26.4345,-81.9647,1.988,36.24,1111122 
SCCF RECON,ioos:station:SCCF:16:1,2012-05-10T03:00:00Z,26.4345,-81.9647,1.951,36.13,1111122 
SCCF RECON,ioos:station:SCCF:16:1,2012-05-10T04:00:00Z,26.4345,-81.9647,2.107,36.21,1111122 
SCCF RECON,ioos:station:SCCF:16:1,2012-05-10T05:00:00Z,26.4345,-81.9647,2.379,36.12,1111122 
SCCF RECON,ioos:station:SCCF:16:1,2012-05-10T06:00:00Z,26.4345,-81.9647,2.488,36.22,1111122 
SCCF RECON,ioos:station:SCCF:16:1,2012-05-10T07:00:00Z,26.4345,-81.9647,2.577,36.24,1111122 
SCCF RECON,ioos:station:SCCF:16:1,2012-05-10T08:00:00Z,26.4345,-81.9647,2.652,36.25,1111122 
SCCF RECON,ioos:station:SCCF:16:1,2012-05-10T09:00:00Z,26.4345,-81.9647,2.72,36.24,1111122 
SCCF RECON,ioos:station:SCCF:16:1,2012-05-10T10:00:00Z,26.4345,-81.9647,2.697,36.24,1111122 
SCCF RECON,ioos:station:SCCF:16:1,2012-05-10T11:00:00Z,26.4345,-81.9647,2.674,36.23,1111122 
SCCF RECON,ioos:station:SCCF:16:1,2012-05-10T12:00:00Z,26.4345,-81.9647,2.617,36.23,1111122 
SCCF RECON,ioos:station:SCCF:16:1,2012-05-10T13:00:00Z,26.4345,-81.9647,2.59,36.23,1111122 
SCCF RECON,ioos:station:SCCF:16:1,2012-05-10T14:00:00Z,26.4345,-81.9647,2.535,36.24,1111122 
SCCF RECON,ioos:station:SCCF:16:1,2012-05-10T15:00:00Z,26.4345,-81.9647,2.53,36.25,1111122 
SCCF RECON,ioos:station:SCCF:16:1,2012-05-10T16:00:00Z,26.4345,-81.9647,2.608,36.26,1111122 
SCCF RECON,ioos:station:SCCF:16:1,2012-05-10T17:00:00Z,26.4345,-81.9647,2.743,36.25,1111122 
SCCF RECON,ioos:station:SCCF:16:1,2012-05-10T18:00:00Z,26.4345,-81.9647,2.888,36.24,1111122 
SCCF RECON,ioos:station:SCCF:16:1,2012-05-10T19:00:00Z,26.4345,-81.9647,2.941,36.24,1111122 
SCCF RECON,ioos:station:SCCF:16:1,2012-05-10T20:00:00Z,26.4345,-81.9647,2.903,36.23,1111122 
SCCF RECON,ioos:station:SCCF:16:1,2012-05-10T21:00:00Z,26.4345,-81.9647,2.834,36.23,1111122 
SCCF RECON,ioos:station:SCCF:16:1,2012-05-10T22:00:00Z,26.4345,-81.9647,2.776,36.23,1111122 
SCCF RECON,ioos:station:SCCF:16:1,2012-05-10T23:00:00Z,26.4345,-81.9647,2.627,36.24,1111122 
SCCF RECON,ioos:station:SCCF:16:1,2012-05-11T00:00:00Z,26.4345,-81.9647,2.467,36.25,1111122 
SCCF RECON,ioos:station:SCCF:16:1,2012-05-11T01:00:00Z,26.4345,-81.9647,2.309,36.26,1111122 
SCCF RECON,ioos:station:SCCF:16:1,2012-05-11T02:00:00Z,26.4345,-81.9647,2.141,36.19,1111122 
SCCF RECON,ioos:station:SCCF:16:1,2012-05-11T03:00:00Z,26.4345,-81.9647,2.046,36.24,1111122 
SCCF RECON,ioos:station:SCCF:16:1,2012-05-11T04:00:00Z,26.4345,-81.9647,2.064,36.09,1111122 
SCCF RECON,ioos:station:SCCF:16:1,2012-05-11T05:00:00Z,26.4345,-81.9647,2.213,36.06,1111122 
SCCF RECON,ioos:station:SCCF:16:1,2012-05-11T06:00:00Z,26.4345,-81.9647,2.366,35.97,1111122 
SCCF RECON,ioos:station:SCCF:16:1,2012-05-11T07:00:00Z,26.4345,-81.9647,2.481,36.11,1111122 
SCCF RECON,ioos:station:SCCF:16:1,2012-05-11T08:00:00Z,26.4345,-81.9647,2.603,36.22,1111122 
SCCF RECON,ioos:station:SCCF:16:1,2012-05-11T09:00:00Z,26.4345,-81.9647,2.665,36.27,1111122 
SCCF RECON,ioos:station:SCCF:16:1,2012-05-11T10:00:00Z,26.4345,-81.9647,2.728,36.27,1111122 
SCCF RECON,ioos:station:SCCF:16:1,2012-05-11T11:00:00Z,26.4345,-81.9647,2.723,36.3,1111122 
SCCF RECON,ioos:station:SCCF:16:1,2012-05-11T12:00:00Z,26.4345,-81.9647,2.653,36.25,1111122 
SCCF RECON,ioos:station:SCCF:16:1,2012-05-11T13:00:00Z,26.4345,-81.9647,2.62,36.22,1111122 
SCCF RECON,ioos:station:SCCF:16:1,2012-05-11T14:00:00Z,26.4345,-81.9647,2.607,36.23,1111122 
SCCF RECON,ioos:station:SCCF:16:1,2012-05-11T15:00:00Z,26.4345,-81.9647,2.576,36.22,1111122 
SCCF RECON,ioos:station:SCCF:16:1,2012-05-11T16:00:00Z,26.4345,-81.9647,2.568,36.21,1111122 